Ukiah Municipal Airport Ukiah US
ICAO: KUKI
IATA: UKI
Category: Medium
Scheduled Services: No

Elevation: 614 ft
TransAlt. 18000 ft.

Airport Communications:
ASOS:119.275
OAKLAND CNTR:127.8
OAKLAND RDO:122
CTAF/UNICOM:123

KUKI Zoom In..

If you have problems with the map follow the link
https://www.worldairports.se/pages/airport.php?
ICAO=KUKI

Runways:

(A) RW 15 length 4423 ft width 150 ft
LOC 109.10 / hdg 151

(B) RW 33 length 4423 ft width 150 ft
LOC 109.10 / hdg 331

Location; KUKI
Day. 23 / Time. 23.56 Zulu
* Altimeter: 30.14
* Temperature: 14° c. 57.2°f.
* Wind from: 000° Speed 00 kn.
Dewpoint: 08° c.
Visibility: 10 Statute Miles.
Clouds: Clear (automated report).

KUKI 232356Z AUTO 00000KT 10SM CLR 14/08 A3014 RMK AO2 SLP202 T01390078 10139 20067 56019


Wind - Calm.

 
 
jpsmedia worldairports.se 2020   terms of use